Weather History for KTRI - April, 2014

Change the Weather History Date:

Friday, April 25, 2014

  Actual Average Record
Temperature  
Mean Temperature 59 °F 58 °F  
Max Temperature 69 °F 71 °F 87 °F (1960)
Min Temperature 49 °F 45 °F 31 °F (1967)
Degree Days  
Heating Degree Days 6 8  
Month to date heating degree days 212 270  
Since 1 July heating degree days 4323 4220  
Cooling Degree Days 0 1  
Month to date cooling degree days 6 4  
Year to date cooling degree days 6 5  
Growing Degree Days 11 (Base 50)    
Moisture  
Dew Point 50 °F    
Average Humidity 58    
Maximum Humidity 77    
Minimum Humidity 39    
Precipitation  
Precipitation 0.47 in 0.12 in 1.99 in (1975)
Month to date precipitation 2.17 2.76  
Year to date precipitation 9.50 13.02  
Snow  
Snow 0.00 in 0.00 in - ()
Month to date snowfall T 1.0  
Since 1 July snowfall 13.0 13.2  
Snow Depth 0.00 in    
Sea Level Pressure  
Sea Level Pressure 29.80 in    
Wind  
Wind Speed 8 mph (WSW)    
Max Wind Speed 33 mph    
Max Gust Speed 45 mph    
Visibility 8 miles    
Events Rain , Thunderstorm    
T = Trace of Precipitation, MM = Missing Value Source: NWS Daily Summary

Daily Weather History Graph

Daily Weather History Graph

Search for Another Location

Airport or City:

Trip Planner

Search our weather history database for the weather conditions in past years. The results will help you decide how hot, cold, wet, or windy it might be!

Date:

Astronomy

Apr. 25, 2014 Rise Set
Actual Time 6:43 AM EDT 8:12 PM EDT
Civil Twilight 6:15 AM EDT 8:39 PM EDT
Nautical Twilight 5:43 AM EDT 9:12 PM EDT
Astronomical Twilight 5:09 AM EDT 9:46 PM EDT
Moon 4:23 AM EDT (4/25) 4:39 PM EDT (4/25)
Length of Visible Light 14h 23m
Length of Day
13h 29m
Waning Crescent, 15% of the Moon is Illuminated
Apr 25
Waning Crescent
Apr 29
New
May 6
First Quarter
May 14
Full
May 21
Last Quarter

Hourly Weather History & Observations

Time (EDT) Temp. Dew Point Humidity Pressure Visibility Wind Dir Wind Speed Gust Speed Precip Events Conditions
12:53 AM 55.9 °F 37.0 °F 49% 29.84 in 10.0 mi Calm Calm - N/A   Scattered Clouds
1:53 AM 54.0 °F 39.0 °F 57% 29.85 in 10.0 mi Calm Calm - N/A   Scattered Clouds
2:53 AM 60.1 °F 36.0 °F 41% 29.80 in 10.0 mi SE 4.6 mph - N/A   Scattered Clouds
3:53 AM 57.9 °F 39.0 °F 49% 29.79 in 10.0 mi Calm Calm - N/A   Scattered Clouds
4:53 AM 60.1 °F 39.0 °F 46% 29.76 in 10.0 mi Calm Calm - N/A   Scattered Clouds
5:53 AM 64.0 °F 39.9 °F 41% 29.74 in 10.0 mi SSE 5.8 mph - N/A   Mostly Cloudy
6:53 AM 63.0 °F 44.1 °F 50% 29.73 in 10.0 mi SSE 4.6 mph - 0.00 in Rain Light Rain
7:53 AM 59.0 °F 51.1 °F 75% 29.74 in 10.0 mi Calm Calm - 0.00 in   Mostly Cloudy
8:04 AM 61.0 °F 50.0 °F 67% 29.80 in 10.0 mi Calm Calm - N/A   Mostly Cloudy
8:53 AM 66.0 °F 50.0 °F 56% 29.74 in 10.0 mi South 6.9 mph - 0.00 in Rain Light Rain
9:53 AM 62.1 °F 54.0 °F 75% 29.73 in 10.0 mi Calm Calm - 0.02 in   Overcast
10:53 AM 62.1 °F 57.0 °F 84% 29.73 in 3.0 mi West 15.0 mph 21.9 mph 0.05 in Rain Heavy Rain
10:57 AM 61.0 °F 57.0 °F 87% 29.79 in 2.0 mi WNW 11.5 mph 21.9 mph 0.03 in Rain Heavy Rain
11:10 AM 62.1 °F 57.9 °F 86% 29.79 in 3.0 mi West 12.7 mph - 0.10 in Rain Light Rain
11:33 AM 60.1 °F 57.9 °F 93% 29.80 in 2.0 mi WSW 11.5 mph - 0.25 in Rain Heavy Rain
11:41 AM 61.0 °F 57.9 °F 90% 29.79 in 3.0 mi SW 12.7 mph - 0.28 in Rain Light Rain
11:53 AM 64.9 °F 59.0 °F 81% 29.73 in 10.0 mi WSW 11.5 mph - 0.28 in   Mostly Cloudy
12:53 PM 68.0 °F 55.9 °F 65% 29.70 in 10.0 mi WSW 18.4 mph 24.2 mph N/A Thunderstorm Thunderstorm
1:15 PM 60.1 °F 51.1 °F 72% 29.81 in 2.0 mi WSW 26.5 mph 44.9 mph 0.00 in Rain , Thunderstorm Light Thunderstorms and Rain
1:35 PM 57.9 °F 54.0 °F 87% 29.81 in 10.0 mi WSW 11.5 mph - 0.11 in Rain Light Rain
1:53 PM 60.1 °F 54.0 °F 80% 29.77 in 10.0 mi WSW 11.5 mph - 0.11 in Rain Light Rain
2:53 PM 62.1 °F 55.0 °F 78% 29.78 in 10.0 mi SSW 16.1 mph 24.2 mph 0.00 in   Mostly Cloudy
3:53 PM 62.1 °F 55.0 °F 78% 29.79 in 8.0 mi West 15.0 mph - 0.00 in Rain Light Rain
4:53 PM 64.9 °F 54.0 °F 68% 29.80 in 10.0 mi West 15.0 mph - 0.01 in   Mostly Cloudy
5:53 PM 64.9 °F 51.1 °F 61% 29.81 in 10.0 mi West 12.7 mph 20.7 mph N/A   Mostly Cloudy
6:53 PM 64.0 °F 50.0 °F 60% 29.83 in 10.0 mi West 12.7 mph 20.7 mph N/A   Overcast
7:53 PM 63.0 °F 48.0 °F 58% 29.85 in 10.0 mi West 10.4 mph - N/A   Scattered Clouds
8:53 PM 60.1 °F 46.9 °F 62% 29.88 in 10.0 mi WSW 10.4 mph 17.3 mph N/A   Scattered Clouds
9:53 PM 59.0 °F 46.9 °F 64% 29.92 in 10.0 mi WSW 10.4 mph - N/A   Partly Cloudy
10:53 PM 55.9 °F 46.0 °F 69% 29.94 in 10.0 mi West 3.5 mph - N/A   Clear
11:53 PM 53.1 °F 46.0 °F 77% 29.95 in 10.0 mi Calm Calm - N/A   Clear